KDUJ Airport (Dubois Rgnl) Information

FAA: DUJ - ICAO: KDUJ

KDUJ Airport Location

State Pennsylvania
County Jefferson
City Dubois
KDUJ Airport is 7 miles northwest of Dubois, PA.
Latitude 41-10-41.8000N
Longitude 078-53-55.3000W
Elevation 1,816ft

KDUJ Airport METARs

METAR KDUJ 302153Z AUTO 05006KT 10SM CLR 13/05 A3017 RMK AO2 SLP224 T01280050
Altimeter 30.17"
Temperature 12.8°C (55.0°F)
Wind 50° at 6KT
Clouds Skies are clear.
Visibility 10.0mi
Time observed: 2022-09-30T21:53:00Z

KDUJ Airport Details

Status Operational
Activation May 1960
Ownership Public
Usage Public
Chart DETROIT
ATC on-site No
Beacon schedule sunset-sunrise
Beacon color clear green

KDUJ Airport Contacts

Owner CLEARFIELD-JEFFERSON COUNTIES
Owner address 377 AVIATION WAY, REYNOLDSVILLE, PA 15851
Owner phone 814-328-5311
Manager DICK HORNICK
Manager address 800 SPRING ST, CORRY, PA 16047
Manager phone (814) 462-7350

KDUJ Airport (Dubois Rgnl) Radio Frequencies

KDUJ (Airport) Radio Frequencies

UNICOM 123
Common traffic advisory frequency (CTAF) 123